STARLINK-11352, 62880

Orbit data source: Space-Track

STARLINK-11352, 62880 is a payload satellite owned by SpaceX/Seattle (US) in LEO that was launched on Tue, 04 Feb 2025 UTC via an FALCON 9 launch vehicle from the Air Force Eastern Test Range (AFETR). Payload-class satellites include a variety of spacecraft equipped with specific instruments for various scientific and technological missions. These include communications satellites like Starlink; space stations such as the ISS; scientific satellites like the Hubble; Earth observation satellites from companies like Planet Labs, Umbra, and HawkEye 360; GPS; miniature CubeSats for education and research; and military/defense satellites.

Loading next visibility...
Identifier
62880, 2025-024B
Orbit
LEO
Last TLE update
9 hours ago
Origin
Manufacturer
SpaceX/Seattle
Mission
Operational Commercial Communications
Bus & Motor
STARLINK V2M, Unknown motor
Mass
730 kg wet, ~700 kg dry
Launch date (UTC)
2025-02-04 (5 months ago)
Launch vehicle
FALCON 9
Launch site
Air Force Eastern Test Range (AFETR)
Object type
Payload
Rocket body
Debris
Shape & HBR
Box + 2 Pan, 29 m
Radar Cross Section
36.964 m², Large (>1 m²)

Expand to show TLE details & history

TLE from 9 hours ago
0 STARLINK-11352
1 62880U 25024B   25183.45488092  .00160581  00000-0  12292-2 0  9995
2 62880  42.9995 249.5684 0000916 246.4311 113.6461 15.70873230 24115
Epoch: 2025-07-02T10:55Z
TLE epoch observation values (Epoch: 2025-07-02T10:55:01.711Z)
Latitude
0.00002°
Longitude
165.07555°
Altitude
356.419 km
Speed
7.697 km/s
True Right ascension
16h 38m 16s
True Declination
0° 00' 00"
Sunlit
Object was in full shadow at epoch
Visualization orbit readout
Latitude
38.60606°
Longitude
-138.9252°
Altitude
358.798 km
Speed
7.699 km/s
Apparent Right ascension
20h 13m 59s
Apparent Declination
0° 37' 38"
Sunlit
Object is in full shadow
Visualization observer readout
Local Sidereal Time
08:05:04
Azimuth
356.575° N
Elevation
-49.406°
Doppler factor
1
Orbital elements
Apogee altitude
358.999 km
Perigee altitude
357.765 km
Semi-major axis
6,736.519 km
Eccentricity
0.00009
Inclination
42.9995°
RAAN
249.5684°
Arg. of periapsis
246.4311°
True anomaly
Unknown
Mean anomaly
113.6461°
Eccentric anomaly
Unknown
Mean motion
3.92545 °/min
Orbital period
91.71 mins
BSTAR
0.0012292
Loading maneuver chart data...
Loading SW <> Apogee altitude chart data...
Loading historical data...
Loading historical data...
Loading historical data...
Loading historical data...
Loading historical data...
Loading historical data...
Loading historical data...

STARLINK-11352 Visibility forecast

Observer location: undefined°, undefined°

Span
Click to sort rows by Start time (UTC) header in descending order
Start Az.
Max El. time (UTC)
Max El. Az.
Max El.
End time (UTC)
End Az.
4 mins2025-07-03 11:45:03.449Z297.707° NW2025-07-03 11:46:03.449Z321.999° NNW38.809°2025-07-03 11:49:03.449Z96.559° ESE
|